• Join FlightAware (Why Join?)
  • Login
  • US Flag 
07:23PM EST


 

Airport Tracker/Info


-or-


 

Live Flight TrackerFlight Track Log ✈ UCA5001 ✈ 28-Apr-2013 ✈ KALB - KEWR

Flight Track Log - Related Links

Times and Time Zones

All times are in EDT time to prevent confusion due to time zone crossing. See the UCA5001 flight status page for this flight to view local times or setup timezone preferences in your user account.

Time Position Orientation Groundspeed Altitude Reporting Facility
EDT Latitude Longitude Course Direction KTS MPH feet Rate Location/Type
11:59AM 42.7361 -73.8111 174° South 121 139 900  Level Boston Center
11:59AM 42.7131 -73.8078 174° South 124 143 1,900 1,423 Climbing Boston Center
12:00PM 42.6694 -73.8039 176° South 159 183 3,200 1,190 Climbing Boston Center
12:01PM 42.6333 -73.8456 220° Southwest 192 221 4,300 1,230 Climbing Boston Center
12:02PM 42.5872 -73.8839 211° Southwest 196 226 5,700 1,388 Climbing Boston Center
12:03PM 42.5408 -73.9222 211° Southwest 194 223 7,100 1,388 Climbing Boston Center
12:04PM 42.4944 -73.9606 211° Southwest 198 228 8,500 1,377 Climbing Boston Center
12:05PM 42.4439 -74.0044 213° Southwest 206 237 9,900 744 Climbing Boston Center
12:06PM 42.3975 -74.0425 211° Southwest 237 273 10,000 50 Climbing Boston Center
12:07PM 42.3342 -74.1000 214° Southwest 242 278 10,000  Level Boston Center
12:08PM 42.2708 -74.1517 211° Southwest 261 300 10,000 -50 Level Boston Center
12:09PM 42.2181 -74.1950 211° Southwest 256 295 9,900  Descending Boston Center
12:10PM 42.1483 -74.2433 207° Southwest 256 295 10,000 50 Climbing Boston Center
12:11PM 42.0936 -74.2867 210° Southwest 256 295 10,000  Level Boston Center
12:12PM 42.0239 -74.3350 207° Southwest 256 295 10,000 -250 Level Boston Center
12:13PM 41.9669 -74.3778 209° Southwest 262 302 9,500 -800 Descending Boston Center
12:14PM 41.8972 -74.4286 208° Southwest 272 313 8,400 -1,000 Descending Boston Center
12:15PM 41.8383 -74.4714 208° Southwest 272 313 7,500 -700 Descending Boston Center
12:16PM 41.7706 -74.5167 206° Southwest 266 306 7,000 -250 Descending Boston Center
12:17PM 41.7119 -74.5342 193° South 255 293 7,000 -100 Level Boston Center
12:18PM 41.6367 -74.5483 188° South 245 282 6,800 -450 Descending Boston Center
12:19PM 41.5761 -74.5603 188° South 245 282 6,100 -400 Descending Boston Center
12:20PM 41.5028 -74.5717 187° South 245 282 6,000  Descending Boston Center
12:22PM 41.3833 -74.6000 190° South 224 258 6,100 37 Climbing New York TRACON
12:23PM 41.3333 -74.6000 180° South 232 267 6,100  Level New York TRACON
12:24PM 41.2667 -74.5833 169° South 232 267 6,100  Level New York TRACON
12:25PM 41.2167 -74.5500 153° Southeast 234 269 6,100  Level New York TRACON
12:26PM 41.1500 -74.5333 169° South 227 261 6,100 -100 Level New York TRACON
12:27PM 41.1000 -74.5000 153° Southeast 220 253 5,900 -500 Descending New York TRACON
12:28PM 41.0833 -74.4167 105° East 230 265 5,100 -403 Descending New York TRACON
12:29PM 41.0833 -74.3333 90° East 221 254 5,100  Level New York TRACON
12:30PM 41.0500 -74.2667 124° Southeast 224 258 5,100 -350 Level New York TRACON
12:31PM 41.0167 -74.2000 124° Southeast 228 262 4,400 -496 Descending New York TRACON
12:32PM 40.9833 -74.1333 124° Southeast 216 249 4,100 -248 Descending New York TRACON
12:33PM 40.9333 -74.0833 143° Southeast 218 251 3,900 -526 Descending New York TRACON
12:34PM 40.8833 -74.0667 166° South 189 217 3,100 -454 Descending New York TRACON
12:35PM 40.8333 -74.0667 180° South 186 214 3,000 -476 Descending New York TRACON
12:36PM 40.7833 -74.1000 207° Southwest 179 206 2,100 -893 Descending New York TRACON
12:37PM 40.7500 -74.1333 217° Southwest 153 176 1,200 -800 Descending New York TRACON
12:38PM 40.7167 -74.1500 201° Southwest 127 146 500 -700 Descending New York TRACON
12:40PM 40.6925 -74.1687 205° Southwest  Level Estimated
12:47PM 40.6925 -74.1687 205° Southwest  Level Estimated
12:48PM 40.6925 -74.1687 205° Southwest  Level Estimated